STARLINK-30268, 57531

Orbit data source: Space-Track

STARLINK-30268, 57531 is a payload satellite owned by SpaceX/Seattle (US) in LEO that was launched on Tue, 08 Aug 2023 UTC via an FALCON 9 launch vehicle from the Air Force Western Test Range (AFWTR). Payload-class satellites include a variety of spacecraft equipped with specific instruments for various scientific and technological missions. These include communications satellites like Starlink; space stations such as the ISS; scientific satellites like the Hubble; Earth observation satellites from companies like Planet Labs, Umbra, and HawkEye 360; GPS; miniature CubeSats for education and research; and military/defense satellites.

Loading next visibility...
Identifier
57531, 2023-115L
Orbit
LEO
Country
Flag of USUS
Related business
Manufacturer
SpaceX/Seattle
Mission
Operational Commercial Communications
Bus & Motor
STARLINK V2M, Unknown motor
Mass
730 kg wet, ~700 kg dry
Launch date (UTC)
2023-08-08 (3 years ago)
Launch vehicle
FALCON 9
Launch site
Air Force Western Test Range (AFWTR)
Object type
Payload
Rocket body
Debris
Shape & HBR
Box + 2 Pan, 17.7 m
Radar Cross Section
33.884 m², Large (>1 m²)

Expand to show TLE details & history
Last TLE update: 2 days ago

TLE from 2 days ago
0 STARLINK-30268
1 57531U 23115L   26171.19438855 -.00003396  00000-0 -11402-3 0  9997
2 57531  43.0028 143.0953 0002152 284.1374  75.9238 15.27555894158025
Epoch: 2026-06-20T04:39Z
TLE epoch observation values (Epoch: 2026-06-20T04:39:55.170Z)
Latitude
-0.00006°
Longitude
164.70285°
Altitude
482.538 km
Speed
7.626 km/s
True Right ascension
09h 32m 22s
True Declination
0° 00' 00"
Sunlit
Object was in daylight at epoch
Visualization orbit readout
Latitude
Unknown
Longitude
Unknown
Altitude
Unknown
Speed
Unknown
Apparent Right ascension
Unknown
Apparent Declination
Unknown
Sunlit
N/A
Visualization observer readout
Local Sidereal Time
21:29:45
Azimuth
Unknown
Elevation
Unknown
Doppler factor
Unknown
Orbital elements
Apogee altitude
486.543 km
Perigee altitude
483.589 km
Semi-major axis
6,863.203 km
Eccentricity
0.00022
Inclination
43.0028°
RAAN
143.0953°
Arg. of periapsis
284.1374°
True anomaly
75.94772°
Mean anomaly
75.9238°
Eccentric anomaly
75.93576°
Mean motion
3.81727 °/min
Orbital period
94.31 mins
BSTAR
-0.00011402
Loading maneuver chart data...
Computing Atmospheric mass density...
Loading historical data...
Loading historical data...
Loading historical data...
Loading historical data...
Loading historical data...
Loading historical data...
Loading historical data...

Documentation

Showing up to 5 results
|